Tracking 28052 objects as of 22-Sep-2023
HD Live streaming from Space Station
objects crossing your sky now

DELTA 1 DEB

Track DELTA 1 DEB now!
10-day predictions


NORAD ID: 18600
Int'l Code: 1976-077FF
Perigee: 1,534.4 km
Apogee: 2,892.0 km
Inclination: 102.0 °
Period: 131.9 minutes
Semi major axis: 8584 km
RCS: 0.0928 m2 (small)
Launch date: July 29, 1976
Source: United States (US)
Launch site: AIR FORCE WESTERN TEST RANGE (AFWTR)

Note: This is SATELLITE DEBRIS
Your satellite tracking list
Your tracking list is empty




NASA's NSSDC Master Catalog

Two Line Element Set (TLE):
1 18600U 76077FF  23265.43204326  .00000055  00000-0  19975-2 0  9997
2 18600 102.0277 227.1456 0790761  11.2070  62.7885 10.91566755360329
Source of the keplerian elements: AFSPC